User: anonymous   Login
Location: Aiyede
(8.4833°N, 4.4500°E)
Time: 03:39:12
(UTC+00:00)
Language:

Envisat - Orbit

View from above orbital plane
View from above orbital plane
View from above satellite
View from above satellite

Ground track
Ground track

The orbit data is extracted from the following two-line orbital elements,

1 27386U 02009A   21023.85882929  .00000037  00000-0  25531-4 0  9996
2 27386  98.1419  25.3559 0001184  87.3985 333.7509 14.38009731990298
Epoch (UTC): 23 January 2021 20:36:42
Eccentricity: 0.0001184
inclination: 98.1419°
perigee height: 764 km
apogee height: 766 km
right ascension of ascending node: 25.3559°
argument of perigee: 87.3985°
revolutions per day: 14.38009731
mean anomaly at epoch: 333.7509°
orbit number at epoch: 99029

The dashed part of the orbit path shows where the satellite is in the earth's shadow,  

DLR